アトラス彗星

C/2019 Y1 ( ATLAS )

English version
Home page
Updated on August 15, 2020

---------------------------------------------------------------------

・ プロフィール

発見日 2019年12月16日
発見光度 17.9等
発見者 Asteroid Terrestrial-Impact Last Alert System (ATLAS) search program

・ 写真集

・ 軌道要素

Epoch 2020 Mar. 12.0 TT = JDT 2458920.5
T 2020 Mar. 15.56243 TT                                 Rudenko
q   0.8378173            (2000.0)            P               Q
z  +0.0042482      Peri.   57.49744     +0.33301861     -0.80026128
 +/-0.0000023      Node    31.36624     +0.12452872     -0.48690712
e   0.9964408      Incl.   73.34824     +0.93466101     +0.35000478
From 920 observations 2019 Dec. 16-2020 June 18, mean residual 1".2.

・ 星図

・ 光度変化

        m1 = 8.5 + 5 logΔ + 25.0 log r(t - 10)  [  ,10]  (              〜2020年 3月25日)
        m1 = 8.0 + 5 logΔ + 17.5 log r(t - 10)  [10,  ]  (2020年 3月25日〜              )

---------------------------------------------------------------------

軌道要素はM.P.E.C. 2020-N31に掲載されたものです。
星図はステラナビゲータ Ver.10 (アストロアーツ) で作成したものです。
光度グラフはComet for Windowsで作成したものです。

---------------------------------------------------------------------

Copyright(C) Seiichi Yoshida (comet@aerith.net). All rights reserved.